Theta_e
318 320 322 323 324 325 326 327 327 327 327 326 327 327 327 326 324 317 310 315 320 329 325 315 311 315 312 309 312 307 298 297 300 298 299 302 301 303 306 307 309 313 310 313 322
318 318 319 321 323 324 325 326 326 327 327 326 326 326 327 325 315 311 321 328 329 329 313 311 307 311 302 307 309 303 296 299 303 302 301 303 303 304 305 307 307 310 315 319 321
319 318 319 320 322 323 324 324 325 325 327 326 325 326 326 322 306 305 326 328 330 327 314 312 311 308 301 302 306 305 297 302 305 305 305 303 302 305 304 302 306 308 314 318 317
319 319 319 320 321 321 322 324 324 324 325 325 324 325 325 316 285 311 327 329 329 321 313 309 307 302 297 297 301 301 305 305 307 307 306 302 304 300 303 303 306 311 318 319 319
317 318 319 319 319 320 321 321 322 323 324 325 324 324 319 306 306 316 326 325 321 315 310 307 303 301 296 297 299 300 301 304 306 306 305 306 303 302 304 306 313 313 319 319 320
316 316 318 318 318 318 319 320 320 322 323 324 324 324 311 298 313 317 320 317 315 312 310 309 305 304 299 297 295 297 299 300 302 303 304 303 303 305 306 307 309 317 317 318 319
315 316 316 317 317 317 318 318 319 321 322 323 324 317 308 303 316 317 319 316 316 313 309 310 309 305 302 297 300 300 296 298 299 299 301 304 300 302 306 305 307 314 315 317 318
314 314 315 316 316 317 317 317 317 319 320 320 322 314 300 313 315 313 318 315 317 317 313 313 313 308 302 303 300 296 294 289 295 300 301 301 290 297 306 305 306 306 310 314 317
312 313 314 315 315 315 316 316 317 316 317 319 315 309 298 313 307 312 316 313 315 315 315 318 311 303 302 296 292 292 285 287 292 299 298 299 293 297 300 303 304 304 305 305 307
310 312 313 314 314 314 314 314 314 313 313 313 312 300 302 299 307 310 313 315 312 311 310 308 303 297 294 291 284 286 286 289 288 292 294 294 296 298 299 299 300 300 300 300 301
309 310 313 313 313 313 309 303 296 297 302 297 300 301 300 304 310 306 314 312 311 307 298 302 295 292 294 294 289 291 289 286 289 294 291 291 292 296 298 298 299 298 298 298 299
307 310 312 312 313 313 305 296 296 298 290 299 301 305 304 305 300 304 315 305 304 296 299 299 293 295 298 297 292 290 288 287 290 293 291 291 290 293 294 294 299 301 300 299 300
306 305 311 311 312 308 300 299 305 305 292 294 298 301 302 304 299 300 308 305 299 296 297 293 292 298 297 295 294 290 288 286 287 291 291 289 289 290 296 295 297 298 300 301 302
306 308 311 311 304 302 298 304 304 305 286 285 294 297 303 304 296 304 309 304 299 295 296 296 297 295 294 294 295 289 292 291 289 287 282 287 279 285 289 291 294 297 298 300 302
307 308 310 310 299 296 298 304 304 299 270 285 293 304 302 298 297 298 308 304 294 293 295 289 292 292 292 293 296 291 295 293 291 286 283 282 282 284 287 288 290 293 297 299 301
307 308 308 306 301 300 304 304 297 281 272 285 294 294 294 296 297 299 301 304 301 296 294 292 296 296 295 296 297 295 292 291 289 287 276 284 283 280 285 289 291 293 294 296 297
307 308 306 304 295 303 304 296 280 273 283 280 287 293 291 291 293 295 294 294 291 286 287 291 293 292 296 291 294 293 288 280 276 278 277 280 282 285 287 291 291 293 293 294 293
306 306 305 302 302 303 298 286 274 273 275 286 288 290 287 290 291 292 292 289 294 290 286 285 283 291 294 292 289 292 289 279 272 274 276 282 279 283 290 293 293 294 294 294 294
305 297 297 299 302 301 290 277 277 279 282 284 287 285 285 289 288 290 290 289 293 292 284 285 284 290 294 295 295 290 288 289 280 271 274 278 281 286 289 289 291 291 292 293 295
296 295 293 299 301 296 285 280 281 286 285 285 279 283 281 285 286 286 286 292 292 295 292 286 281 288 291 295 295 293 294 285 281 271 269 276 278 281 284 288 291 291 292 294 295
294 287 292 300 297 289 279 280 282 288 289 283 281 279 282 285 285 286 285 290 294 294 295 290 287 283 289 289 290 290 288 288 287 280 274 271 277 284 288 289 290 291 292 293 295
292 282 294 299 283 282 279 279 286 285 288 287 284 283 283 284 285 286 285 287 295 296 290 293 289 282 286 286 293 294 290 290 283 281 282 279 279 286 287 289 289 291 292 292 294
286 287 297 294 277 280 279 283 285 284 285 285 285 285 285 285 282 285 287 291 293 294 292 294 287 281 283 287 289 289 291 292 291 284 282 279 281 289 287 288 289 290 291 291 291
286 280 287 288 279 278 280 279 281 287 286 286 285 287 284 282 287 285 285 288 291 294 297 296 289 284 280 282 287 287 289 291 290 284 284 283 286 287 286 288 289 290 290 290 291
285 277 281 278 281 275 282 282 279 281 286 286 283 284 283 280 280 283 286 287 291 293 294 293 285 287 287 285 287 288 288 289 288 289 285 287 287 290 292 290 289 290 290 289 290
279 282 283 277 283 278 281 279 281 281 283 283 281 284 284 279 282 279 285 286 285 289 289 292 285 286 285 287 288 284 288 289 290 290 289 290 288 295 296 292 291 290 291 290 290
287 287 284 283 280 279 276 277 281 283 284 285 285 283 283 285 287 288 290 290 289 286 287 287 286 284 281 285 285 281 286 286 288 291 291 286 291 296 294 293 292 291 289 291 293
Wind_Speed
15 14 14 12 10 9 11 11 9 8 7 4 2 3 5 7 8 2 4 5 2 7 8 6 5 7 3 3 5 2 4 1 3 5 3 2 3 3 1 5 0 1 3 1 5
15 13 14 12 12 9 8 11 10 8 7 6 3 3 4 5 2 5 9 7 4 6 5 4 3 6 3 3 3 3 4 6 3 3 3 4 5 6 4 3 3 2 1 3 7
14 13 13 14 12 11 7 6 9 9 7 7 5 2 2 4 3 6 4 4 6 4 1 1 1 1 2 1 3 3 5 5 3 2 2 4 4 5 7 3 7 7 6 7 5
15 13 13 14 12 11 9 7 6 8 8 7 5 4 3 2 6 1 6 4 5 5 2 1 1 4 3 4 2 3 4 3 2 2 2 3 3 3 5 5 1 7 7 10 12
17 14 12 11 12 10 7 5 4 6 8 8 6 6 4 3 7 2 4 6 5 5 4 3 4 5 6 5 4 4 4 3 3 2 1 0 2 2 6 5 3 3 8 11 11
18 17 14 12 10 10 7 6 2 3 7 9 7 6 2 6 5 4 3 2 3 3 4 4 4 4 4 4 5 6 2 0 2 3 2 1 1 1 5 4 2 6 9 8 11
18 17 15 14 12 10 8 6 4 3 3 8 9 4 4 11 4 2 1 2 3 4 3 2 1 1 3 3 2 2 4 3 3 2 3 3 8 9 5 2 6 7 7 7 9
16 18 16 14 15 13 11 8 2 3 3 1 6 4 6 5 5 3 3 2 1 2 2 3 2 2 2 1 4 4 4 3 3 6 5 7 12 5 9 7 10 8 8 8 10
10 18 17 16 13 11 10 7 3 2 2 0 1 5 4 3 3 7 3 2 2 1 1 1 2 2 2 6 2 5 4 3 6 9 4 7 8 7 6 8 10 9 9 8 8
8 16 19 17 14 12 11 8 3 2 2 3 1 3 4 5 4 5 5 2 2 2 2 3 3 2 1 4 10 6 4 4 7 3 4 6 12 8 5 5 10 9 9 8 9
16 15 20 19 16 14 8 6 4 1 4 6 3 3 3 2 3 3 6 5 4 3 5 4 4 13 10 5 2 5 3 4 3 3 3 8 10 16 9 6 9 10 10 9 11
18 13 21 20 18 17 9 6 6 3 4 12 9 6 2 1 3 3 9 8 7 7 7 3 17 6 5 4 3 2 3 4 4 3 1 7 11 12 9 9 14 16 11 11 8
21 16 24 22 19 11 7 7 3 6 2 5 12 6 4 4 5 8 15 6 5 10 15 12 4 12 8 5 8 4 6 4 3 4 1 6 14 10 13 8 9 10 12 10 14
22 23 29 22 12 7 6 6 2 7 4 7 7 10 5 3 5 6 14 8 6 14 7 12 9 8 5 13 9 11 7 5 3 2 5 1 12 7 6 10 8 10 9 15 16
22 13 18 21 9 10 8 9 5 7 5 8 9 4 14 8 6 8 5 8 8 6 8 7 11 9 12 8 9 5 7 8 4 3 3 4 5 6 1 9 5 10 14 13 14
24 26 23 11 3 6 11 11 6 5 11 4 7 11 16 16 8 3 5 4 2 6 4 7 2 10 8 5 10 6 6 6 4 3 6 11 7 5 6 9 7 7 6 9 10
22 21 19 8 9 11 12 8 7 10 2 5 7 15 22 16 21 7 13 17 10 8 13 5 10 3 5 7 3 7 8 2 1 4 10 1 7 17 4 8 7 9 9 8 6
21 18 14 6 8 12 7 6 12 8 7 4 6 12 19 13 16 18 15 15 22 13 7 11 8 12 6 8 7 17 11 7 9 6 4 2 12 9 6 8 8 9 8 8 7
20 2 6 4 9 6 7 12 8 5 9 3 2 9 10 16 8 18 19 22 19 20 10 11 12 3 7 7 11 5 14 6 5 2 3 6 8 9 10 10 9 9 4 8 7
6 5 4 8 8 6 9 16 4 4 3 3 10 8 11 11 14 17 14 14 18 25 3 4 3 6 6 4 10 12 10 7 2 4 6 5 6 10 4 9 9 10 9 6 5
6 6 1 10 5 5 9 10 7 8 4 7 8 5 7 10 10 13 11 9 19 20 19 2 3 2 8 15 15 9 10 5 5 6 6 2 9 9 13 9 9 8 6 7 7
5 4 2 10 7 3 8 7 3 6 2 4 2 7 7 9 11 14 17 12 12 15 22 13 3 5 15 1 12 19 15 18 10 17 10 1 11 3 6 6 5 9 8 7 5
6 3 2 6 10 8 4 4 15 5 3 6 5 5 2 7 8 12 10 7 8 19 16 14 8 8 4 3 1 13 21 21 22 2 18 8 12 3 5 5 8 9 8 6 3
4 5 3 4 2 8 5 9 7 6 2 1 1 12 5 3 4 4 4 2 7 12 22 16 11 10 17 6 8 14 20 22 21 17 20 18 27 10 3 6 7 7 7 6 7
2 2 3 5 11 2 6 3 4 4 5 5 2 6 9 10 3 5 4 4 8 4 11 13 15 18 20 7 1 10 23 24 22 26 19 26 26 25 17 11 9 7 7 7 7
5 5 2 1 11 8 10 6 6 1 2 5 5 4 4 6 7 9 1 5 9 4 12 13 17 13 16 16 19 12 16 21 23 24 24 26 23 21 17 9 9 12 9 10 10
2 1 5 5 3 4 5 6 10 8 6 4 11 7 7 12 8 6 4 5 6 5 8 18 11 14 22 18 18 18 21 17 18 20 20 25 30 31 18 10 11 9 9 12 12
Wind_Direction
254 258 256 252 254 262 247 235 225 221 232 243 270 326 333 331 325 342 262 230 276 336 345 325 1 343 13 55 27 116 61 227 213 149 207 190 163 165 89 121 92 225 172 271 128
244 246 259 256 248 249 254 244 231 215 229 227 240 297 328 346 317 257 249 255 294 344 10 26 15 345 28 23 10 85 122 220 213 183 195 189 178 172 146 134 243 257 190 97 132
234 238 246 255 247 242 242 250 237 226 219 226 214 237 306 343 338 249 7 293 259 263 291 82 319 48 156 85 189 184 195 198 226 204 188 181 164 173 135 224 215 203 173 155 154
236 233 235 247 240 241 238 237 239 231 220 220 212 193 181 39 228 331 351 307 238 170 140 139 121 125 146 183 188 177 248 201 190 201 193 187 139 176 177 220 204 216 163 164 173
234 232 230 237 235 226 230 226 233 227 226 222 201 183 152 193 250 311 26 54 88 130 158 168 158 142 177 187 146 181 214 211 290 179 186 190 218 222 244 228 68 115 155 181 188
238 229 217 216 220 226 213 222 248 251 231 223 195 163 189 221 236 290 129 52 117 119 163 158 206 202 150 184 171 205 192 275 293 293 296 208 271 114 270 212 166 158 197 196 200
254 234 217 208 211 218 211 219 229 283 287 241 204 145 231 221 106 35 241 334 173 146 153 215 203 134 139 158 198 128 153 346 241 231 262 124 293 220 234 145 196 218 214 213 222
256 240 215 208 204 203 200 201 211 284 301 254 250 156 232 252 236 352 328 321 106 149 118 201 226 127 161 128 43 122 74 155 263 163 242 127 257 265 231 199 226 216 225 223 228
243 241 210 199 199 198 196 182 203 271 298 128 188 172 227 12 180 207 151 248 125 54 59 101 124 157 72 118 69 11 184 189 300 203 142 176 255 249 268 194 235 245 239 233 252
224 246 211 195 192 188 194 167 213 25 275 119 71 97 274 208 207 166 161 166 156 139 118 97 60 150 79 150 209 180 191 216 205 225 211 222 258 259 277 210 241 252 259 253 252
233 237 218 198 187 183 133 89 67 267 237 202 191 254 146 201 140 164 148 147 138 155 180 165 176 211 202 190 117 145 175 182 245 237 194 238 249 261 250 231 253 247 244 244 243
235 218 212 196 185 181 129 155 182 171 253 238 260 268 78 351 125 183 135 167 185 186 144 177 230 196 157 188 203 170 180 215 288 297 227 295 266 258 245 228 227 239 237 236 242
217 217 219 202 184 177 159 165 172 139 291 263 214 219 173 149 200 201 175 153 190 184 193 205 173 169 169 174 201 202 190 161 211 339 294 326 273 245 256 216 223 233 236 235 231
208 206 216 186 176 149 167 157 82 78 249 247 200 218 154 131 259 207 192 167 198 205 162 235 233 179 183 217 188 236 162 158 173 78 246 45 281 257 245 257 228 248 237 237 232
201 165 205 173 133 173 170 142 94 64 241 217 166 168 144 176 145 212 144 211 182 171 158 214 173 166 198 197 168 233 161 174 161 150 350 215 284 265 247 271 259 240 242 247 244
205 185 184 186 103 142 129 123 78 190 225 168 136 168 160 194 194 110 142 85 145 194 231 219 241 191 196 145 175 142 87 50 60 100 270 232 191 217 204 214 240 243 245 243 252
200 185 175 149 174 147 135 120 199 211 325 203 180 174 185 182 193 177 180 192 196 189 205 166 211 208 140 132 125 173 127 121 318 206 240 322 198 251 257 259 230 258 273 264 257
178 172 170 135 142 146 126 166 221 178 223 265 168 181 193 166 200 191 183 200 213 212 178 204 216 179 179 176 181 192 178 163 198 203 251 195 233 249 243 284 278 256 249 271 283
162 113 145 145 157 145 160 206 212 186 176 200 144 174 210 197 170 184 207 207 201 201 196 198 229 51 180 157 149 172 215 174 106 7 44 225 292 292 252 267 263 274 282 268 280
128 134 144 142 140 156 207 225 197 196 142 123 196 181 197 196 202 196 203 193 210 201 207 226 266 183 179 136 207 181 151 183 169 180 253 263 271 238 308 245 259 257 241 244 261
129 143 170 129 94 200 223 221 191 251 151 164 224 244 203 187 197 194 214 227 194 198 199 195 79 285 144 202 183 178 195 205 170 163 190 275 259 216 225 205 227 270 277 251 228
95 128 167 133 173 178 220 194 308 191 179 165 151 201 195 196 193 213 217 211 184 198 197 202 184 209 211 142 217 207 200 201 206 213 232 310 260 325 213 200 227 262 250 252 240
112 102 209 152 186 193 202 233 225 299 197 197 161 229 183 227 231 213 204 232 193 191 195 178 204 226 198 234 359 209 211 205 219 71 213 203 259 274 201 209 208 230 265 270 251
109 134 140 170 103 194 210 190 196 187 190 133 308 207 275 235 223 273 266 234 222 204 213 173 202 219 231 223 146 203 210 212 208 222 233 222 249 218 159 227 240 250 254 252 247
85 192 181 160 193 118 174 151 168 169 188 187 306 209 208 224 212 213 219 298 282 283 226 215 221 223 233 243 267 232 212 211 214 221 218 234 242 252 236 231 228 240 245 233 249
125 134 48 46 141 138 188 200 188 299 147 190 193 206 175 208 218 216 142 217 217 243 237 239 246 238 243 236 242 231 233 225 221 224 234 244 249 256 250 210 228 226 229 238 234
120 71 117 116 114 122 207 186 185 149 226 208 223 200 225 226 225 212 209 273 279 311 230 235 248 237 248 235 241 246 227 223 240 235 231 237 240 251 256 242 225 227 212 234 240